Regional Weather Roundup
Issued by NWS

Home | Current Version | Previous Version | Graphics & Text | Print | Product List | Glossary On
Versions: 1 2 3 4 5 6 7 8 9 10 11 12 13 14 15 16 17 18 19 20 21 22 23 24 25 26 27 28 29 30 31 32 33 34 35 36 37 38 39 40 41 42 43 44 45 46 47 48 49 50
000
ASUS44 KMEG 060210
RWRTN
TENNESSEE HOURLY STATE WEATHER ROUNDUP
NATIONAL WEATHER SERVICE MEMPHIS TN
800 PM CST THU MAR 05 2015

TNZ002-004-019-021-049-052-054-088>092-060300-
WEST TENNESSEE

CITY           SKY/WX    TMP DP  RH WIND       PRES   REMARKS
MEMPHIS INTL   PTCLDY    23  11  60 NE5       30.56R WCI  17
NWS MEMPHIS      N/A     23 N/A N/A MISG        N/A
JACKSON        PTCLDY    19   8  62 N8        30.56R WCI   9
DYERSBURG      PTCLDY    19   0  42 NE5       30.59S WCI  13
UNION CITY       N/A     19   9  63 NE8       30.56R WCI   9
PARIS          CLEAR     16   3  57 N5        30.55S WCI   9
LEXINGTON      CLEAR     21   9  58 N7        30.52S WCI  13
SAVANNAH       CLEAR     25  10  54 N8        30.52R WCI  16
$$

TNZ008-025-027-028-033-062-065-066-060300-
NORTH MIDDLE TENNESSEE

CITY           SKY/WX    TMP DP  RH WIND       PRES   REMARKS
NASHVILLE      CLEAR     20  10  65 N8        30.54R WCI  10
CLARKSVILLE    PTCLDY    13   3  64 N10       30.56R WCI   0
SMYRNA         CLEAR     21  13  71 N3        30.54R
COOKEVILLE     CLOUDY    19  16  86 NE5       30.46S WCI  13
CROSSVILLE     CLOUDY    19  13  77 N7        30.40R WCI  10
$$

TNZ061-075-076-078-094-096-097-060300-
SOUTH MIDDLE TENNESSEE

CITY           SKY/WX    TMP DP  RH WIND       PRES   REMARKS
FAYETTEVILLE   CLEAR     19  14  79 N13         N/A  WCI   7
TULLAHOMA      MOCLDY    19  16  86 N7          N/A  WCI  10
WINCHESTER     CLOUDY    21  16  79 N15       30.45S WCI   8
MCMINNVILLE    PTCLDY    21  16  79 N9        30.46S WCI  11
COLUMBIA         N/A     21  16  79 N5        30.49S WCI  15
SHELBYVILLE    PTCLDY    19  18  93 N3        30.50S
$$

TNZ017-018-042-046-047-060300-
NORTHEAST TENNESSEE

CITY           SKY/WX    TMP DP  RH WIND       PRES   REMARKS
TRI CITIES     MOCLDY    23  16  74 N9        30.39R WCI  13
ELIZABETHTON   CLOUDY    21  16  79 NW10      30.37R WCI  10
$$

TNZ012-013-036-069-073-074-060300-
CENTRAL EAST TENNESSEE

CITY           SKY/WX    TMP DP  RH WIND       PRES   REMARKS
KNOXVILLE      CLOUDY    23  18  81 N15       30.42R WCI  10
OAK RIDGE      PTCLDY    23  16  74 N6        30.46R WCI  16
GATLINBURG     CLOUDY    25  21  86 N7        30.41S WCI  17
MORRISTOWN     PTCLDY    25  21  86 N7        30.40S WCI  17
$$

TNZ083-085-099-060300-
SOUTHEAST TENNESSEE

CITY           SKY/WX    TMP DP  RH WIND       PRES   REMARKS
CHATTANOOGA    MOCLDY    27  19  72 N23       30.42R WCI  12
$$

SKY/WX REPORTED AS FAIR MEANS FEW OR NO CLOUDS BELOW
12 THOUSAND FEET.




USA.gov is the U.S. government's official web portal to all federal, state and local government web resources and services.